STARLINK-32398, 61624

Orbit data source: Space-Track

STARLINK-32398, 61624 is a payload satellite owned by SpaceX/Seattle (US) in LEO that was launched on Wed, 23 Oct 2024 UTC via an FALCON 9 launch vehicle from the Air Force Eastern Test Range (AFETR). Payload-class satellites include a variety of spacecraft equipped with specific instruments for various scientific and technological missions. These include communications satellites like Starlink; space stations such as the ISS; scientific satellites like the Hubble; Earth observation satellites from companies like Planet Labs, Umbra, and HawkEye 360; GPS; miniature CubeSats for education and research; and military/defense satellites.

Loading next visibility...
Identifier
61624, 2024-191D
Orbit
LEO
Country
Flag of USUS
Related business
Manufacturer
SpaceX/Seattle
Mission
Operational Commercial Communications
Bus & Motor
STARLINK V2M, Unknown motor
Mass
730 kg wet, ~700 kg dry
Launch date (UTC)
2024-10-23 (2 years ago)
Launch vehicle
FALCON 9
Launch site
Air Force Eastern Test Range (AFETR)
Object type
Payload
Rocket body
Debris
Shape & HBR
Box + 2 Pan, 17.7 m
Radar Cross Section
33.884 m², Large (>1 m²)

Expand to show TLE details & history
Last TLE update: 12 hours ago

TLE from 12 hours ago
0 STARLINK-32398
1 61624U 24191D   26255.22123809 -.00000634  00000-0 -13505-4 0  9996
2 61624  43.0028 181.0976 0001163 275.7355  84.3364 15.27577831106062
Epoch: 2026-09-12T05:18Z
TLE epoch observation values (Epoch: 2026-09-12T05:18:34.970Z)
Latitude
-0.00005°
Longitude
110.21849°
Altitude
482.753 km
Speed
7.626 km/s
True Right ascension
12h 04m 23s
True Declination
0° 00' 00"
Sunlit
Object was in daylight at epoch
Visualization orbit readout
Latitude
Unknown
Longitude
Unknown
Altitude
Unknown
Speed
Unknown
Apparent Right ascension
Unknown
Apparent Declination
Unknown
Sunlit
N/A
Visualization observer readout
Local Sidereal Time
09:57:44
Azimuth
Unknown
Elevation
Unknown
Doppler factor
Unknown
Orbital elements
Apogee altitude
485.798 km
Perigee altitude
484.202 km
Semi-major axis
6,863.137 km
Eccentricity
0.00012
Inclination
43.0028°
RAAN
181.0976°
Arg. of periapsis
275.7355°
True anomaly
84.34966°
Mean anomaly
84.3364°
Eccentric anomaly
84.34303°
Mean motion
3.81733 °/min
Orbital period
94.31 mins
BSTAR
-0.000013505
Loading maneuver chart data...
Computing Atmospheric mass density...
Loading historical data...
Loading historical data...
Loading historical data...
Loading historical data...
Loading historical data...
Loading historical data...
Loading historical data...

Documentation

Showing up to 5 results
|